Preview of NWS' New Version of Forecast
This preview is not operational and should not be used for support decisions.

Regional Weather Roundup (RWR)

Issued by National Weather Service (NWS)

                            
084 
ASUS42 KTBW 261616
RWRFL 
FLORIDA REGIONAL WEATHER ROUNDUP
NATIONAL WEATHER SERVICE TAMPA BAY RUSKIN FL
1200 PM EDT TUE MAR 26 2019

NOTE: "FAIR" INDICATES FEW OR NO CLOUDS BELOW 12,000 FEET WITH NO
SIGNIFICANT WEATHER AND/OR OBSTRUCTIONS TO VISIBILITY.

FLZ001>010-012>015-112-114-115-261700-
PANHANDLE FLORIDA
  
CITY           SKY/WX    TMP DP  RH WIND       PRES   REMARKS
PENSACOLA      FAIR      65  51  60 NE13      30.13F                  
PENSACOLA NAS  PTSUNNY   65  51  60 N9G17     30.13S                  
MILTON NAS     FAIR      62  51  67 NW9       30.14S                  
CRESTVIEW      FAIR      63  49  60 N7        30.13F                  
DUKE FIELD     PTSUNNY   64  50  59 N8        30.11F                  
VALPARAISO     MOSUNNY   65  50  58 N10       30.11S                  
MARY ESTHER    MOSUNNY   66  51  57 N12       30.10F                  
PANAMA CITY    FAIR      67  54  63 N8        30.09S                  
TYNDALL AFB    FAIR      68  55  62 N8        30.08S                  
APALACHICOLA   FAIR      71  55  56 VRB6      30.06F                  

STATION/POSITION SKY/WX   TEMP    WIND        PRES    WAVE   SWELL
                          AIR SEA DIR/SP/G            HT/PER HT/PER
                          (F)     (DEG/KT/KT) (MB)    (FT/S) (FT/S)
30.1N   87.6W                                 1021.2R   2/ 3
29.2N   88.2W                     350/ 14/ 17 1022.0R   4/ 5   2/ 7
PANAMA CITY BEAC           64 66              1019.4R
TOWER C                    63     320/  9/  9 1018.6R

$$
FLZ011-016>038-118-127-128-134-139-239-261700-
NORTH FLORIDA
  
CITY           SKY/WX    TMP DP  RH WIND       PRES   REMARKS
MARIANNA       FAIR      66  54  65 NW7       30.08S                  
TALLAHASSEE    PTSUNNY   69  56  62 N5        30.06S                  
PERRY          FAIR      72  56  56 NE5       30.05S                  
LIVE OAK       MOSUNNY   72  55  56 CALM      30.04S                  
CROSS CITY     FAIR      74  57  55 W7        30.04S                  
LAKE CITY      FAIR      70  55  60 CALM      30.04S                  
GAINESVILLE    FAIR      75  59  57 VRB3      30.06S                  
WILLISTON        N/A    N/A N/A N/A MISG        N/A                   
PALATKA        FAIR      73  57  56 W7        30.03S                  
MAYPORT NAS    FAIR      71  58  63 N8        30.03R                  
JACKSONVILLE   FAIR      74  53  48 VRB7G16   30.02S                  
JAX NAS        FAIR      72  56  57 N7        30.04R                  
JAX CECIL      SUNNY    N/A N/A N/A VRB5      30.03S                  
FERNANDINA BEA FAIR      71  58  62 N9        30.03S                  
ST AUGUSTINE   FAIR      74  58  57 NW7       30.03S                  
PALM COAST     MOSUNNY   73  59  60 NW7       30.03R                  

STATION/POSITION SKY/WX   TEMP    WIND        PRES    WAVE   SWELL
                          AIR SEA DIR/SP/G            HT/PER HT/PER
                          (F)     (DEG/KT/KT) (MB)    (FT/S) (FT/S)
SHELL POINT      NOT AVBL
KEATON BEACH               67     280/ 10/ 12 1017.7R
CEDAR KEY                  69     330/  7/ 12 1017.4S
FERNANDINA                    66              1017.8R
30.7N   81.3W                 65                N/A     1/ 3
MAYPORT                       67              1017.0R
31.4N   80.9W              59 63  350/ 10/ 10 1017.6R   2/ 4   2/27
ST AUGUSTINE               67 63   40/ 11/ 12 1017.0R

$$
FLZ040-043>046-052-053-057-058-063-144-261700-
INTERIOR CENTRAL FLORIDA
  
CITY           SKY/WX    TMP DP  RH WIND       PRES   REMARKS
OCALA          PTSUNNY   74  62  66 W7        30.04S                  
LEESBURG       FAIR      74  62  66 W8        30.04S                  
SANFORD        FAIR      76  61  59 NW5       30.02F                  
ORLANDO EXEC   FAIR      77  60  55 W8        30.03S                  
ORLANDO INTL   FAIR      77  59  53 W7        30.03S                  
KISSIMMEE      FAIR      77  61  57 VRB7      30.04F                  
WINTER HAVEN   FAIR      77  61  57 VRB3      30.04F                  
LAKELAND       MOSUNNY   75  61  60 W5        30.05F                  
BARTOW         MOSUNNY   75  61  60 W9        30.03F                  
SEBRING        FAIR      80  55  43 N9        30.04F                  
OKEECHOBEE     PTSUNNY   77  63  61 NW5       30.04F                  

$$
FLZ041-047-054-059-064-141-147-261700-
EAST CENTRAL FLORIDA
  
CITY           SKY/WX    TMP DP  RH WIND       PRES   REMARKS
ORMOND BEACH   MOSUNNY   72  63  73 W9        30.03S                  
DAYTONA BEACH  FAIR      74  62  66 NW8       30.02F                  
DELAND         FAIR      75  61  60 W8        30.02F                  
NEW SMYRNA BEA MOSUNNY   75  59  57 NW6       30.03F                  
JFK SPACE CTR  FAIR     N/A N/A N/A NW8         N/A                   
TITUSVILLE     MOSUNNY   79  61  53 N8        30.03S                  
CAPE CANAVERAL FAIR      77  60  56 NW8       30.01F                  
PATRICK AFB    SUNNY     75  59  57 NW9       30.03F                  
MELBOURNE      FAIR      78  60  53 NW9       30.02F                  
VERO BEACH     FAIR      80  51  36 NW9       30.03F                  
FT PIERCE      FAIR      78  58  49 NW9       30.03F                  

STATION/POSITION SKY/WX   TEMP    WIND        PRES    WAVE   SWELL
                          AIR SEA DIR/SP/G            HT/PER HT/PER
                          (F)     (DEG/KT/KT) (MB)    (FT/S) (FT/S)
28.5N   80.2W              70     310/ 14/ 17 1017.1S   3/ 5   2/ 9
28.9N   78.5W              72 74  290/ 12/ 14 1016.6S   6/ 6   3/ 6
TRIDENT PIER                  68              1017.7F
28.4N   80.5W                 70                N/A     1/ 9
27.5N   80.2W                 73                N/A     1/11

$$
FLZ050-056-061-142-242-148-248-149-249-151-251-155-255-
160-260-261700-
WEST CENTRAL FLORIDA
  
CITY           SKY/WX    TMP DP  RH WIND       PRES   REMARKS
CRYSTAL RIVER  PTSUNNY   72  63  73 W7        30.05S                  
INVERNESS      PTSUNNY   73  63  68 SW6       30.05S                  
BROOKSVILLE    PTSUNNY   76  62  62 W14       30.05F                  
CLEARWATER AIR FAIR      72  63  73 NW10G17   30.06S                  
ST PETE CLEARW FAIR      75  62  64 NW12      30.05S                  
TAMPA INTL     FAIR      76  63  64 W10       30.05S                  
TAMPA EXEC     FAIR      79  63  57 NW8       30.05F                  
PLANT CITY     FAIR      79  63  57 NW7       30.06F                  
MACDILL AFB    FAIR      75  62  62 NW6       30.05S                  
PETER O KNIGHT CLOUDY    77  64  65 W6        30.05F                  
ST PETERSBURG  FAIR      75  61  61 N5        30.03F                  
SARASOTA       FAIR      77  61  57 NW9       30.04S                  
VENICE         FAIR      77  64  65 NW14      30.06F                  

STATION/POSITION SKY/WX   TEMP    WIND        PRES    WAVE   SWELL
                          AIR SEA DIR/SP/G            HT/PER HT/PER
                          (F)     (DEG/KT/KT) (MB)    (FT/S) (FT/S)
27.3N   84.2W                 73                N/A     2/ 3
CLEARWATER BEACH           69 72              1017.9S
MIDDLE TAMPA BAY           71                 1017.8F
VENICE                     71 72  310/ 12/ 14 1017.6F

$$
FLZ066-069-070-075>078-162-262-165-265-261700-
SOUTHWEST FLORIDA AND KEYS
  
CITY           SKY/WX    TMP DP  RH WIND       PRES   REMARKS
PUNTA GORDA    PTSUNNY   77  61  57 N8        30.07S                  
FT MYERS       PTSUNNY   76  64  66 VRB3      30.05S                  
SOUTHWEST INTL CLOUDY    78  66  66 VRB5      30.05F                  
NAPLES         FAIR      77  66  68 NW7       30.06S                  
MARCO ISLAND   CLOUDY    78  66  66 W7        30.07S                  
IMMOKALEE      PTSUNNY   79  66  65 VRB3      30.04S                  
MARATHON       FAIR      82  62  50 N7        30.05S                  
KEY WEST NAS   FAIR      81  67  62 N10       30.06S                  
KEY WEST INTL  FAIR      81  69  67 N10       30.07R                  

STATION/POSITION SKY/WX   TEMP    WIND        PRES    WAVE   SWELL
                          AIR SEA DIR/SP/G            HT/PER HT/PER
                          (F)     (DEG/KT/KT) (MB)    (FT/S) (FT/S)
NAPLES                     73 73              1018.0R
DRY TORTUGAS               76     330/  4/  5 1018.3F
SAND KEY                   74                 1018.3R
SOMBRERO KEY               75                 1017.3R
MOLASSES REEF              76 78  360/  4/  4 1017.8

$$
FLZ067-068-071>074-168-172>174-261700-
SOUTHEAST FLORIDA 
  
CITY           SKY/WX    TMP DP  RH WIND       PRES   REMARKS
W PALM BEACH   PTSUNNY   79  60  52 NW8       30.04S                  
BOCA RATON     SUNNY     82  59  44 N7G16     30.04S                  
FT LAUDER-EXEC FAIR      81  58  45 VRB5      30.03F                  
FT LAUDERDALE  FAIR      82  60  47 VRB6      30.02F                  
POMPANO BEACH  FAIR      83  58  42 W8        30.03F                  
PEMBROKE PINES FAIR      82  59  45 N7        30.05S                  
OPA LOCKA      FAIR      82  61  48 NW7       30.04F                  
MIAMI          FAIR      81  62  52 VRB5      30.04F                  
WEST KENDALL   FAIR      82  61  48 NW7       30.04F                  
HOMESTEAD      FAIR      81  63  54 NW6       30.03F                  

STATION/POSITION SKY/WX   TEMP    WIND        PRES    WAVE   SWELL
                          AIR SEA DIR/SP/G            HT/PER HT/PER
                          (F)     (DEG/KT/KT) (MB)    (FT/S) (FT/S)
VIRGINIA KEY               77 76              1016.5F
LAKE WORTH                 77 78              1018.2R
FOWEY ROCKS                75 77   CALM  /  1 1017.9F
SETTLEMENT POINT           76     330/ 10/ 11 1017.0F

$$